Regional Weather Roundup
Issued by NWS

Home | Current Version | Previous Version | Text Only | Print | Product List | Glossary Off
Versions: 1 2 3 4 5 6 7 8 9 10 11 12 13 14 15 16 17 18 19 20 21 22 23 24 25 26 27 28 29 30 31 32 33 34 35 36 37 38 39 40 41 42 43 44 45 46 47 48 49 50

000
ASUS43 KLMK 220410
RWRKY
KENTUCKY REGIONAL WEATHER ROUNDUP
NATIONAL WEATHER SERVICE LOUISVILLE KY
1200 AM EDT SUN APR 22 2018

NOTE "FAIR" INDICATES FEW OR NO CLOUDS BELOW 12,000 FEET
WITH NO SIGNIFICANT WEATHER AND/OR OBSTRUCTIONS TO VISIBILITY.

KYZ001>023-026-027-061>063-070>075-220500-
WESTERN AND SOUTH CENTRAL KENTUCKY

CITY           SKY/WX    TMP DP  RH WIND       PRES   REMARKS
PADUCAH        FAIR      64  36  35 E3        30.16R
HENDERSON      FAIR      62  34  35 E16       30.20F
OWENSBORO      FAIR      60  36  40 E10       30.22F
HOPKINSVILLE   FAIR      63  36  37 E9        30.16F
BOWLING GREEN  FAIR      57  38  48 NE3       30.22F
GLASGOW        FAIR      58  37  45 NE6       30.23S
$$

KYZ024-025-028>034-038-045-046-053-220500-
NORTH CENTRAL KENTUCKY

CITY           SKY/WX    TMP DP  RH WIND       PRES   REMARKS
LOUISVILLE/SDF MOCLDY    57  28  33 NE8       30.28S
LOUISVILLE/LOU FAIR      57  29  34 NE9       30.29S
FORT KNOX      FAIR      57  29  34 NE9       30.27S
$$

KYZ035>037-039>044-047>052-055>060-089>105-220500-
NORTHEAST KENTUCKY

CITY           SKY/WX    TMP DP  RH WIND       PRES   REMARKS
LEXINGTON      FAIR      51  31  46 NE10      30.28S
COVINGTON      CLOUDY    53  23  31 NE9       30.30F
FRANKFORT      FAIR      54  27  35 NE8       30.27F
$$

KYZ054-064>069-076>088-106>120-220500-
SOUTHEAST KENTUCKY

CITY           SKY/WX    TMP DP  RH WIND       PRES   REMARKS
JACKSON        FAIR      56  22  26 VRB6      30.27S
LONDON         FAIR      56  28  34 N5        30.25S
SOMERSET       FAIR      54  32  43 MISG      30.26S
MIDDLESBORO    FAIR      47  39  73 CALM      30.26S
MONTICELLO     NOT AVBL
$$





USA.gov is the U.S. government's official web portal to all federal, state and local government web resources and services.